| time (UTC) | temp F | wind direction | speed MPH | gust MPH | rain 1hr in | rain 24hr in | rain mn in | humidity % | barometer mb |
| 20260902125030 | 68 | 0.0 | 0.0 | 0.00 | 0.00 | 0.00 | 92 | 1014.2 | |
| 20260902124025 | 67 | 0.0 | 0.0 | 0.00 | 0.00 | 0.00 | 92 | 1013.9 | |
| 20260902123021 | 67 | 31 | 2.0 | 6.0 | 0.00 | 0.00 | 0.00 | 92 | 1013.7 |
| 20260902122038 | 67 | 298 | 2.0 | 3.0 | 0.00 | 0.00 | 0.00 | 92 | 1013.3 |
| 20260902121034 | 67 | 339 | 0.0 | 2.0 | 0.00 | 0.00 | 0.00 | 92 | 1013.7 |
| 20260902120031 | 67 | 87 | 2.0 | 6.0 | 0.00 | 0.00 | 0.00 | 92 | 1013.8 |
| 20260902115048 | 67 | 154 | 1.0 | 2.0 | 0.00 | 0.00 | 0.00 | 91 | 1014.8 |
| 20260902114044 | 67 | 127 | 1.0 | 4.0 | 0.00 | 0.00 | 0.00 | 91 | 1014.8 |
| 20260902113021 | 67 | 126 | 1.0 | 2.0 | 0.00 | 0.00 | 0.00 | 91 | 1014.7 |
| 20260902112018 | 66 | 135 | 0.0 | 1.0 | 0.00 | 0.00 | 0.00 | 91 | 1014.4 |
| 20260902111034 | 66 | 0.0 | 0.0 | 0.00 | 0.00 | 0.00 | 91 | 1013.9 | |
| 20260902110051 | 67 | 0.0 | 0.0 | 0.00 | 0.00 | 0.00 | 91 | 1013.3 | |
| 20260902105027 | 67 | 0.0 | 0.0 | 0.00 | 0.00 | 0.00 | 91 | 1013.3 | |
| 20260902104024 | 67 | 0.0 | 0.0 | 0.00 | 0.00 | 0.00 | 91 | 1013.1 | |
| 20260902103040 | 67 | 112 | 0.0 | 1.0 | 0.00 | 0.00 | 0.00 | 91 | 1013.3 |
| 20260902102017 | 68 | 9 | 0.0 | 1.0 | 0.00 | 0.00 | 0.00 | 91 | 1013.1 |
| 20260902101034 | 68 | 0.0 | 0.0 | 0.00 | 0.00 | 0.00 | 91 | 1013.1 | |
| 20260902100030 | 68 | 40 | 1.0 | 2.0 | 0.00 | 0.00 | 0.00 | 91 | 1013.3 |
| 20260902095027 | 68 | 97 | 1.0 | 4.0 | 0.00 | 0.00 | 0.00 | 91 | 1013.5 |
| 20260902094044 | 68 | 282 | 1.0 | 3.0 | 0.00 | 0.00 | 0.00 | 91 | 1013.4 |
| 20260902093021 | 68 | 112 | 0.0 | 2.0 | 0.00 | 0.00 | 0.00 | 91 | 1013.5 |
| 20260902092018 | 69 | 0.0 | 0.0 | 0.00 | 0.00 | 0.00 | 91 | 1013.7 | |
| 20260902091032 | 69 | 150 | 0.0 | 1.0 | 0.00 | 0.00 | 0.00 | 91 | 1013.9 |
| 20260902090031 | 69 | 121 | 0.0 | 1.0 | 0.00 | 0.00 | 0.00 | 91 | 1014.2 |
| 20260902085026 | 69 | 101 | 1.0 | 3.0 | 0.00 | 0.00 | 0.00 | 91 | 1014.5 |
| 20260902084022 | 70 | 204 | 2.0 | 4.0 | 0.00 | 0.01 | 0.00 | 91 | 1014.9 |
| 20260902083018 | 70 | 285 | 3.0 | 9.0 | 0.00 | 0.01 | 0.00 | 91 | 1014.9 |
| 20260902082035 | 70 | 239 | 4.0 | 9.0 | 0.00 | 0.01 | 0.00 | 91 | 1014.3 |
| 20260902081111 | 70 | 80 | 1.0 | 3.0 | 0.00 | 0.01 | 0.00 | 91 | 1012.3 |
| 20260902080028 | 70 | 0.0 | 0.0 | 0.00 | 0.01 | 0.00 | 91 | 1012.4 | |
| 20260902075024 | 70 | 93 | 1.0 | 2.0 | 0.00 | 0.01 | 0.00 | 91 | 1012.2 |
| 20260902074021 | 70 | 81 | 0.0 | 2.0 | 0.00 | 0.01 | 0.00 | 91 | 1012.3 |
| 20260902073017 | 70 | 0.0 | 0.0 | 0.00 | 0.01 | 0.00 | 91 | 1012.5 | |
| 20260902072034 | 70 | 0.0 | 0.0 | 0.00 | 0.01 | 0.00 | 91 | 1012.3 | |
| 20260902071030 | 70 | 0.0 | 0.0 | 0.00 | 0.01 | 0.00 | 91 | 1012.4 | |
| 20260902070028 | 70 | 0.0 | 0.0 | 0.00 | 0.01 | 0.00 | 91 | 1012.6 | |
| 20260902065024 | 70 | 0.0 | 0.0 | 0.00 | 0.01 | 0.00 | 90 | 1012.5 | |
| 20260902064020 | 71 | 0.0 | 0.0 | 0.00 | 0.01 | 0.00 | 90 | 1012.5 | |
| 20260902063017 | 71 | 0.0 | 0.0 | 0.00 | 0.01 | 0.00 | 90 | 1012.4 | |
| 20260902062033 | 71 | 0.0 | 0.0 | 0.00 | 0.01 | 0.00 | 90 | 1012.5 | |
| 20260902061030 | 72 | 36 | 0.0 | 2.0 | 0.00 | 0.01 | 0.00 | 90 | 1012.9 |
| 20260902060027 | 72 | 5 | 1.0 | 2.0 | 0.00 | 0.01 | 0.00 | 90 | 1013.0 |
| 20260902055045 | 71 | 93 | 1.0 | 3.0 | 0.00 | 0.01 | 0.00 | 90 | 1013.2 |
| 20260902054020 | 71 | 133 | 0.0 | 3.0 | 0.00 | 0.01 | 0.00 | 90 | 1013.4 |
| 20260902053017 | 70 | 0.0 | 0.0 | 0.00 | 0.01 | 0.00 | 90 | 1013.0 | |
| 20260902052033 | 70 | 0.0 | 0.0 | 0.00 | 0.01 | 0.00 | 90 | 1013.0 | |
| 20260902051030 | 70 | 0.0 | 0.0 | 0.00 | 0.01 | 0.00 | 90 | 1012.9 | |
| 20260902050025 | 69 | 167 | 0.0 | 1.0 | 0.00 | 0.01 | 0.01 | 90 | 1013.0 |
| 20260902045042 | 69 | 0.0 | 0.0 | 0.00 | 0.01 | 0.01 | 89 | 1012.9 | |
| 20260902044018 | 70 | 0.0 | 0.0 | 0.00 | 0.01 | 0.01 | 89 | 1012.8 | |
| 20260902043036 | 70 | 0.0 | 0.0 | 0.00 | 0.01 | 0.01 | 89 | 1012.8 | |
| 20260902042031 | 70 | 0.0 | 0.0 | 0.00 | 0.01 | 0.01 | 89 | 1012.8 | |
| 20260902041028 | 71 | 0.0 | 0.0 | 0.00 | 0.01 | 0.01 | 89 | 1012.6 | |
| 20260902040025 | 71 | 0.0 | 0.0 | 0.00 | 0.01 | 0.01 | 89 | 1012.7 | |
| 20260902035020 | 72 | 0.0 | 0.0 | 0.00 | 0.01 | 0.01 | 89 | 1012.9 | |
| 20260902034016 | 72 | 0.0 | 0.0 | 0.00 | 0.01 | 0.01 | 89 | 1013.1 | |
| 20260902033032 | 72 | 0.0 | 0.0 | 0.00 | 0.01 | 0.01 | 89 | 1013.0 | |
| 20260902032029 | 72 | 0.0 | 0.0 | 0.00 | 0.01 | 0.01 | 89 | 1013.0 | |
| 20260902031045 | 72 | 0.0 | 0.0 | 0.00 | 0.01 | 0.01 | 89 | 1013.0 | |
| 20260902030022 | 72 | 0.0 | 0.0 | 0.00 | 0.01 | 0.01 | 89 | 1013.3 | |
| 20260902025019 | 72 | 0.0 | 0.0 | 0.00 | 0.01 | 0.01 | 88 | 1013.4 | |
| 20260902024035 | 72 | 0.0 | 0.0 | 0.00 | 0.01 | 0.01 | 88 | 1013.3 | |
| 20260902023032 | 72 | 0.0 | 0.0 | 0.00 | 0.01 | 0.01 | 88 | 1013.4 | |
| 20260902022028 | 73 | 0.0 | 0.0 | 0.00 | 0.01 | 0.01 | 88 | 1013.3 | |
| 20260902021025 | 73 | 0.0 | 0.0 | 0.00 | 0.01 | 0.01 | 88 | 1013.0 | |
| 20260902020022 | 73 | 0.0 | 0.0 | 0.00 | 0.01 | 0.01 | 88 | 1013.0 | |
| 20260902015018 | 74 | 97 | 0.0 | 1.0 | 0.00 | 0.01 | 0.01 | 87 | 1013.0 |
| 20260902014035 | 75 | 102 | 0.0 | 1.0 | 0.00 | 0.01 | 0.01 | 87 | 1012.8 |
| 20260902013031 | 75 | 97 | 1.0 | 2.0 | 0.00 | 0.01 | 0.01 | 87 | 1012.7 |
| 20260902012028 | 76 | 85 | 2.0 | 4.0 | 0.00 | 0.01 | 0.01 | 87 | 1012.6 |
| 20260902011024 | 76 | 165 | 0.0 | 2.0 | 0.00 | 0.01 | 0.01 | 87 | 1012.4 |
| 20260902010020 | 76 | 253 | 1.0 | 1.0 | 0.00 | 0.01 | 0.01 | 86 | 1012.1 |
| 20260902005017 | 76 | 323 | 1.0 | 3.0 | 0.00 | 0.01 | 0.01 | 86 | 1011.5 |
| 20260902004053 | 76 | 149 | 1.0 | 3.0 | 0.00 | 0.01 | 0.01 | 86 | 1011.4 |
| 20260902003029 | 77 | 63 | 2.0 | 3.0 | 0.00 | 0.01 | 0.01 | 85 | 1011.6 |
| 20260902002045 | 77 | 99 | 3.0 | 4.0 | 0.00 | 0.01 | 0.01 | 85 | 1011.9 |
| 20260902001042 | 78 | 109 | 2.0 | 3.0 | 0.00 | 0.01 | 0.01 | 84 | 1012.5 |
| 20260902000017 | 78 | 88 | 2.0 | 3.0 | 0.00 | 0.01 | 0.01 | 84 | 1012.7 |
| 20260901235033 | 79 | 106 | 2.0 | 4.0 | 0.00 | 0.01 | 0.01 | 83 | 1013.1 |
| 20260901234030 | 80 | 83 | 1.0 | 3.0 | 0.00 | 0.01 | 0.01 | 83 | 1013.2 |
| 20260901233026 | 81 | 83 | 1.0 | 2.0 | 0.00 | 0.01 | 0.01 | 82 | 1013.2 |
| 20260901232023 | 82 | 83 | 0.0 | 1.0 | 0.00 | 0.01 | 0.01 | 81 | 1012.6 |
| 20260901231020 | 82 | 91 | 1.0 | 2.0 | 0.00 | 0.01 | 0.01 | 81 | 1012.3 |
| 20260901230016 | 83 | 92 | 2.0 | 3.0 | 0.00 | 0.01 | 0.01 | 79 | 1012.5 |
| 20260901225034 | 84 | 111 | 1.0 | 2.0 | 0.00 | 0.01 | 0.01 | 78 | 1012.7 |
| 20260901224049 | 86 | 112 | 1.0 | 2.0 | 0.00 | 0.01 | 0.01 | 77 | 1012.5 |
| 20260901223026 | 86 | 112 | 1.0 | 1.0 | 0.00 | 0.01 | 0.01 | 76 | 1012.4 |
| 20260901222042 | 87 | 110 | 1.0 | 2.0 | 0.00 | 0.01 | 0.01 | 76 | 1012.5 |
| 20260901221018 | 88 | 206 | 2.0 | 3.0 | 0.00 | 0.01 | 0.01 | 76 | 1012.4 |
| 20260901220035 | 87 | 199 | 2.0 | 4.0 | 0.00 | 0.01 | 0.01 | 77 | 1012.4 |
| 20260901215032 | 87 | 122 | 0.0 | 1.0 | 0.00 | 0.01 | 0.01 | 77 | 1012.4 |
| 20260901214048 | 88 | 190 | 2.0 | 4.0 | 0.00 | 0.01 | 0.01 | 76 | 1012.4 |
| 20260901213025 | 87 | 215 | 3.0 | 6.0 | 0.00 | 0.01 | 0.01 | 78 | 1012.5 |
| 20260901212021 | 86 | 170 | 1.0 | 3.0 | 0.00 | 0.01 | 0.01 | 80 | 1012.5 |
| 20260901211017 | 85 | 107 | 0.0 | 1.0 | 0.00 | 0.01 | 0.01 | 78 | 1012.5 |
| 20260901210034 | 85 | 81 | 1.0 | 2.0 | 0.00 | 0.01 | 0.01 | 77 | 1012.0 |
| 20260901205031 | 87 | 89 | 1.0 | 2.0 | 0.00 | 0.01 | 0.01 | 74 | 1012.1 |
| 20260901204027 | 88 | 178 | 1.0 | 3.0 | 0.00 | 0.01 | 0.01 | 73 | 1012.8 |
| 20260901203024 | 90 | 222 | 2.0 | 4.0 | 0.00 | 0.01 | 0.01 | 72 | 1013.2 |
| 20260901202021 | 91 | 226 | 4.0 | 7.0 | 0.00 | 0.01 | 0.01 | 72 | 1013.2 |
| 20260901201017 | 91 | 212 | 2.0 | 4.0 | 0.00 | 0.01 | 0.01 | 72 | 1013.0 |
| 20260901200033 | 91 | 220 | 2.0 | 4.0 | 0.00 | 0.01 | 0.01 | 72 | 1013.1 |
| 20260901195030 | 92 | 193 | 2.0 | 6.0 | 0.00 | 0.01 | 0.01 | 71 | 1013.2 |
| 20260901194027 | 93 | 217 | 2.0 | 6.0 | 0.00 | 0.01 | 0.01 | 71 | 1013.0 |
| 20260901193023 | 94 | 175 | 2.0 | 4.0 | 0.00 | 0.01 | 0.01 | 71 | 1013.0 |
| 20260901192100 | 94 | 182 | 2.0 | 6.0 | 0.00 | 0.01 | 0.01 | 72 | 1013.1 |
| 20260901191016 | 94 | 193 | 1.0 | 4.0 | 0.00 | 0.01 | 0.01 | 73 | 1013.1 |
| 20260901190033 | 93 | 213 | 3.0 | 7.0 | 0.00 | 0.01 | 0.01 | 73 | 1013.2 |
| 20260901185029 | 94 | 271 | 2.0 | 8.0 | 0.00 | 0.01 | 0.01 | 75 | 1013.2 |
| 20260901184026 | 93 | 234 | 3.0 | 6.0 | 0.00 | 0.01 | 0.01 | 76 | 1013.1 |
| 20260901183022 | 93 | 233 | 2.0 | 6.0 | 0.00 | 0.01 | 0.01 | 78 | 1013.2 |
| 20260901182018 | 92 | 180 | 1.0 | 4.0 | 0.00 | 0.01 | 0.01 | 79 | 1013.3 |
| 20260901181055 | 91 | 179 | 1.0 | 6.0 | 0.00 | 0.01 | 0.01 | 79 | 1013.3 |
| 20260901180032 | 91 | 232 | 1.0 | 3.0 | 0.00 | 0.01 | 0.01 | 80 | 1013.4 |
| 20260901175028 | 90 | 217 | 1.0 | 4.0 | 0.00 | 0.01 | 0.01 | 81 | 1013.5 |
| 20260901174025 | 91 | 226 | 2.0 | 7.0 | 0.00 | 0.01 | 0.01 | 82 | 1013.7 |
| 20260901173021 | 91 | 287 | 2.0 | 4.0 | 0.00 | 0.01 | 0.01 | 83 | 1013.7 |
| 20260901172019 | 91 | 221 | 1.0 | 4.0 | 0.00 | 0.01 | 0.01 | 84 | 1013.7 |
| 20260901171034 | 91 | 204 | 1.0 | 4.0 | 0.00 | 0.01 | 0.01 | 85 | 1013.8 |
| 20260901170031 | 89 | 292 | 1.0 | 3.0 | 0.00 | 0.01 | 0.01 | 86 | 1013.9 |
| 20260901165028 | 89 | 34 | 1.0 | 2.0 | 0.00 | 0.01 | 0.01 | 86 | 1013.9 |
| 20260901164044 | 88 | 200 | 1.0 | 2.0 | 0.00 | 0.01 | 0.01 | 87 | 1014.0 |
| 20260901163020 | 87 | 209 | 2.0 | 3.0 | 0.00 | 0.01 | 0.01 | 87 | 1013.9 |
| 20260901162017 | 86 | 190 | 1.0 | 2.0 | 0.00 | 0.01 | 0.01 | 88 | 1014.2 |
| 20260901161034 | 85 | 187 | 1.0 | 3.0 | 0.00 | 0.01 | 0.01 | 89 | 1014.3 |
| 20260901160110 | 84 | 195 | 1.0 | 3.0 | 0.00 | 0.01 | 0.01 | 89 | 1014.3 |
| 20260901155027 | 83 | 188 | 1.0 | 2.0 | 0.00 | 0.01 | 0.01 | 90 | 1014.2 |
| 20260901154023 | 82 | 195 | 1.0 | 3.0 | 0.00 | 0.01 | 0.01 | 90 | 1014.2 |
| 20260901153020 | 80 | 288 | 1.0 | 2.0 | 0.00 | 0.01 | 0.01 | 91 | 1014.3 |
| 20260901152017 | 78 | 308 | 1.0 | 2.0 | 0.00 | 0.01 | 0.01 | 91 | 1014.1 |
| 20260901151033 | 78 | 325 | 0.0 | 1.0 | 0.00 | 0.01 | 0.01 | 91 | 1014.1 |
| 20260901150030 | 78 | 305 | 1.0 | 2.0 | 0.00 | 0.01 | 0.01 | 91 | 1014.2 |
| 20260901145026 | 77 | 291 | 0.0 | 2.0 | 0.00 | 0.01 | 0.01 | 91 | 1014.1 |
| 20260901144022 | 77 | 271 | 0.0 | 1.0 | 0.00 | 0.01 | 0.01 | 91 | 1014.1 |
| 20260901143019 | 77 | 0.0 | 0.0 | 0.00 | 0.01 | 0.01 | 91 | 1014.0 | |
| 20260901142016 | 77 | 272 | 0.0 | 1.0 | 0.00 | 0.01 | 0.01 | 91 | 1014.0 |
| 20260901141032 | 76 | 284 | 0.0 | 2.0 | 0.00 | 0.01 | 0.01 | 91 | 1013.9 |
| 20260901140029 | 75 | 0.0 | 0.0 | 0.00 | 0.01 | 0.01 | 91 | 1014.0 | |
| 20260901135045 | 74 | 0.0 | 0.0 | 0.00 | 0.01 | 0.01 | 91 | 1014.2 | |
| 20260901134022 | 73 | 0.0 | 0.0 | 0.00 | 0.01 | 0.01 | 92 | 1014.5 | |
| 20260901133019 | 73 | 105 | 0.0 | 1.0 | 0.00 | 0.01 | 0.01 | 92 | 1014.8 |
| 20260901132036 | 72 | 0.0 | 0.0 | 0.00 | 0.01 | 0.01 | 92 | 1014.6 | |
| 20260901131032 | 71 | 0.0 | 0.0 | 0.00 | 0.01 | 0.01 | 91 | 1014.7 | |
| 20260901130029 | 71 | 0.0 | 0.0 | 0.00 | 0.01 | 0.01 | 91 | 1014.5 |